Starlink 31575

operational
NORAD ID: 59471 Int'l Des: 2024-068 Owner: SPXS Country: US Constellation: starlink
LEOCIRCULAR

About Starlink 31575

Description loading...

Live Position

Loading 3D Globe...

Upcoming Passes

Altitude History

Altitude vs Time

uPlot chart will show altitude changes over time

Two-Line Element Set

1 59471U 24068S 25258.19450257 .00002100 00000-0 85824-4 0 9995
2 59471 43.0010 302.1090 0001195 263.8604 96.2112 15.27582230 81720
Epoch: Sep 15, 2025 • Age: 22 hours

Current Status

Altitude 482.4 km
Velocity 7.63 km/s
Sub-Earth Point 5.41°N, 92.67°W
Launch Date Apr 10, 2024
Age 1.4 years
Type internet

Technical Details

Classification Payload
Mass 730.00 kg
Dry Mass 700.00 kg
Total Mass 730.00 kg
Length 0.30 m
Diameter 4.10 m
Span 29.00 m
Shape Box + pan
Manufacturer SPXS
Bus Type Starlink V2M
Phase Status In Orbit
Owner/State SPXS/US

Large Constellations

Loading constellations...